This is the latest recevied weather packets stored in our database for station/object W0AKY-13. If no packets are shown the sender has not sent any weather packets the latest 10 day(s).
| Time | Temp. | Humidity | Pressure | Rain* | Wind** | Luminosity | Snow |
|---|---|---|---|---|---|---|---|
| 1777483084 | 13.33° C | 59% | 1023 hPa | 0 mm | - | 680 W/m² | - |
| 1777482781 | 13.33° C | 62% | 1023.2 hPa | 0 mm | - | 681 W/m² | - |
| 1777482477 | 13.33° C | 64% | 1022.9 hPa | 0 mm | - | 673 W/m² | - |
| 1777482175 | 13.33° C | 61% | 1023.1 hPa | 0 mm | - | 670 W/m² | - |
| 1777481873 | 12.22° C | 63% | 1023.2 hPa | 0 mm | - | 670 W/m² | - |
| 1777481569 | 12.22° C | 62% | 1023.3 hPa | 0 mm | - | 664 W/m² | - |
| 1777481266 | 12.78° C | 62% | 1023.3 hPa | 0 mm | - | 453 W/m² | - |
| 1777480963 | 12.78° C | 65% | 1023.3 hPa | 0 mm | - | 670 W/m² | - |
| 1777480659 | 12.22° C | 70% | 1023.2 hPa | 0 mm | - | 646 W/m² | - |
| 1777480357 | 12.78° C | 66% | 1023.4 hPa | 0 mm | - | 670 W/m² | - |
| 1777480052 | 11.67° C | 66% | 1023.6 hPa | 0 mm | - | 620 W/m² | - |
| 1777479749 | 11.67° C | 67% | 1023.6 hPa | 0 mm | - | 349 W/m² | - |
| 1777479447 | 11.67° C | 70% | 1023.5 hPa | 0 mm | - | 612 W/m² | - |
| 1777479143 | 11.67° C | 70% | 1023.4 hPa | 0 mm | - | 583 W/m² | - |
| 1777478841 | 11.67° C | 72% | 1023.3 hPa | 0 mm | - | 636 W/m² | - |
| 1777478536 | 12.22° C | 72% | 1023.2 hPa | 0 mm | - | 410 W/m² | - |
| 1777478235 | 11.67° C | 74% | 1023.3 hPa | 0 mm | - | 549 W/m² | - |
| 1777477930 | 11.11° C | 71% | 1023 hPa | 0 mm | - | 482 W/m² | - |
| 1777477625 | 11.11° C | 77% | 1023 hPa | 0 mm | - | 536 W/m² | - |
| 1777477322 | 11.67° C | 77% | 1023 hPa | 0 mm | - | 531 W/m² | - |
| 1777477018 | 11.11° C | 77% | 1022.7 hPa | 0 mm | - | 394 W/m² | - |
| 1777476716 | 11.11° C | 78% | 1022.8 hPa | 0 mm | - | 490 W/m² | - |
| 1777476412 | 10.56° C | 78% | 1022.9 hPa | 0 mm | - | 489 W/m² | - |
| 1777476109 | 10.56° C | 80% | 1022.9 hPa | 0 mm | - | 424 W/m² | - |
| 1777475804 | 10.56° C | 79% | 1022.9 hPa | 0 mm | - | 451 W/m² | - |
* Rain latest hour (hover to see other rain measurements)
** Current wind speed in m/s (hover to see current wind gust speed)